User: anonymous   Login
Location: Fort Wayne
(41.1310°N, 85.1290°W)
Time: 18:28:06
(UTC-04:00)
Language:

Cosmos 2082 - Orbit

View from above orbital plane
View from above orbital plane
View from above satellite
View from above satellite

Ground track
Ground track

The orbit data is extracted from the following two-line orbital elements,

1 20624U 90046A   15085.48538481  .00000334  00000-0  19979-3 0  9991
2 20624 071.0384 117.5955 0015685 195.5713 164.4929 14.14138162282152
Epoch (UTC): 26 March 2015 11:38:57
Eccentricity: 0.0015685
inclination: 71.0384°
perigee height: 834 km
apogee height: 856 km
right ascension of ascending node: 117.5955°
argument of perigee: 195.5713°
revolutions per day: 14.14138162
mean anomaly at epoch: 164.4929°
orbit number at epoch: 28215

The dashed part of the orbit path shows where the satellite is in the earth's shadow,  

DLR